contact:dominique.lefevre@mio.osupytheas.fr, maurice.libes@osupytheas.fr, didier.mallarino@osupytheas.fr
Project:EMSO http://www.emso-fr.org/EMSO-France
Depth: 2436.0 m
Title:EMSO Ligure Ouest : Data MII capteur MICROCAT
DateTime_Computer,Latitude,Longitude,Temperature,Conductivity,Pressure,DateTime_Instrument
DateTime_Computer,Latitude,Longitude,degC,S m-1,dbar,DateTime_Instrument
2023-05-21T00:00:03Z,42.805,6.029,13.3019,4.60078,2470.661,2023-5-21T02:02:15Z
2023-05-21T00:03:06Z,42.805,6.029,13.3020,4.60080,2470.693,2023-5-21T02:05:18Z
2023-05-21T00:06:09Z,42.805,6.029,13.3022,4.60086,2470.661,2023-5-21T02:08:21Z
2023-05-21T00:09:12Z,42.805,6.029,13.3021,4.60079,2470.661,2023-5-21T02:11:24Z
2023-05-21T00:12:15Z,42.805,6.029,13.3019,4.60078,2470.661,2023-5-21T02:14:27Z
2023-05-21T00:15:18Z,42.805,6.029,13.3021,4.60079,2470.67,2023-5-21T02:17:30Z
2023-05-21T00:18:21Z,42.805,6.029,13.3018,4.60075,2470.646,2023-5-21T02:20:33Z
2023-05-21T00:21:24Z,42.805,6.029,13.3021,4.60078,2470.646,2023-5-21T02:23:36Z
2023-05-21T00:24:27Z,42.805,6.029,13.3021,4.60079,2470.67,2023-5-21T02:26:39Z
2023-05-21T00:27:30Z,42.805,6.029,13.3022,4.60077,2470.646,2023-5-21T02:29:42Z
2023-05-21T00:30:33Z,42.805,6.029,13.3021,4.60075,2470.624,2023-5-21T02:32:45Z
2023-05-21T00:33:36Z,42.805,6.029,13.3021,4.60077,2470.646,2023-5-21T02:35:48Z
2023-05-21T00:36:39Z,42.805,6.029,13.3024,4.60080,2470.624,2023-5-21T02:38:51Z
2023-05-21T00:39:43Z,42.805,6.029,13.3015,4.60077,2470.646,2023-5-21T02:41:55Z
2023-05-21T00:42:46Z,42.805,6.029,13.3019,4.60078,2470.624,2023-5-21T02:44:58Z
2023-05-21T00:45:49Z,42.805,6.029,13.3021,4.60077,2470.637,2023-5-21T02:48:01Z
2023-05-21T00:48:52Z,42.805,6.029,13.3021,4.60079,2470.67,2023-5-21T02:51:04Z
2023-05-21T00:51:55Z,42.805,6.029,13.3021,4.60077,2470.661,2023-5-21T02:54:07Z
2023-05-21T00:54:58Z,42.805,6.029,13.3019,4.60076,2470.646,2023-5-21T02:57:10Z
2023-05-21T00:58:01Z,42.805,6.029,13.3021,4.60076,2470.6,2023-5-21T03:00:13Z
2023-05-21T01:01:04Z,42.805,6.029,13.3023,4.60079,2470.637,2023-5-21T03:03:16Z
2023-05-21T01:04:07Z,42.805,6.029,13.3020,4.60076,2470.637,2023-5-21T03:06:19Z
2023-05-21T01:07:10Z,42.805,6.029,13.3021,4.60075,2470.624,2023-5-21T03:09:22Z
2023-05-21T01:10:13Z,42.805,6.029,13.3023,4.60079,2470.6,2023-5-21T03:12:25Z
2023-05-21T01:13:16Z,42.805,6.029,13.3023,4.60076,2470.6,2023-5-21T03:15:28Z
2023-05-21T01:16:19Z,42.805,6.029,13.3021,4.60076,2470.6,2023-5-21T03:18:31Z
2023-05-21T01:19:23Z,42.805,6.029,13.3024,4.60077,2470.6,2023-5-21T03:21:35Z
2023-05-21T01:22:26Z,42.805,6.029,13.3022,4.60075,2470.6,2023-5-21T03:24:38Z
2023-05-21T01:25:29Z,42.805,6.029,13.3019,4.60076,2470.646,2023-5-21T03:27:41Z
2023-05-21T01:28:32Z,42.805,6.029,13.3019,4.60074,2470.614,2023-5-21T03:30:44Z
2023-05-21T01:31:35Z,42.805,6.029,13.3021,4.60077,2470.6,2023-5-21T03:33:47Z
2023-05-21T01:34:38Z,42.805,6.029,13.3021,4.60077,2470.646,2023-5-21T03:36:50Z
2023-05-21T01:37:41Z,42.805,6.029,13.3022,4.60078,2470.591,2023-5-21T03:39:53Z
2023-05-21T01:40:44Z,42.805,6.029,13.3023,4.60078,2470.614,2023-5-21T03:42:56Z
2023-05-21T01:43:47Z,42.805,6.029,13.3020,4.60077,2470.614,2023-5-21T03:45:59Z
2023-05-21T01:46:50Z,42.805,6.029,13.3025,4.60079,2470.624,2023-5-21T03:49:02Z
2023-05-21T01:49:53Z,42.805,6.029,13.3021,4.60075,2470.577,2023-5-21T03:52:05Z
2023-05-21T01:52:56Z,42.805,6.029,13.3021,4.60077,2470.614,2023-5-21T03:55:08Z
2023-05-21T01:56:00Z,42.805,6.029,13.3021,4.60076,2470.624,2023-5-21T03:58:11Z
2023-05-21T01:59:03Z,42.805,6.029,13.3021,4.60075,2470.591,2023-5-21T04:01:15Z
2023-05-21T02:02:06Z,42.805,6.029,13.3022,4.60076,2470.577,2023-5-21T04:04:18Z
2023-05-21T02:05:09Z,42.805,6.029,13.3024,4.60076,2470.577,2023-5-21T04:07:21Z
2023-05-21T02:08:12Z,42.805,6.029,13.3019,4.60077,2470.591,2023-5-21T04:10:24Z
2023-05-21T02:11:15Z,42.805,6.029,13.3021,4.60075,2470.577,2023-5-21T04:13:27Z
2023-05-21T02:14:18Z,42.805,6.029,13.3020,4.60079,2470.591,2023-5-21T04:16:30Z
2023-05-21T02:17:21Z,42.805,6.029,13.3020,4.60075,2470.563,2023-5-21T04:19:33Z
2023-05-21T02:20:24Z,42.805,6.029,13.3020,4.60076,2470.591,2023-5-21T04:22:36Z
2023-05-21T02:23:27Z,42.805,6.029,13.3020,4.60076,2470.539,2023-5-21T04:25:39Z
2023-05-21T02:26:30Z,42.805,6.029,13.3021,4.60078,2470.6,2023-5-21T04:28:42Z
2023-05-21T02:29:33Z,42.805,6.029,13.3020,4.60077,2470.6,2023-5-21T04:31:45Z
2023-05-21T02:32:36Z,42.805,6.029,13.3024,4.60077,2470.591,2023-5-21T04:34:48Z
2023-05-21T02:35:40Z,42.805,6.029,13.3023,4.60076,2470.614,2023-5-21T04:37:52Z
2023-05-21T02:38:43Z,42.805,6.029,13.3022,4.60077,2470.577,2023-5-21T04:40:55Z
2023-05-21T02:41:46Z,42.805,6.029,13.3022,4.60075,2470.577,2023-5-21T04:43:58Z
2023-05-21T02:44:49Z,42.805,6.029,13.3021,4.60077,2470.577,2023-5-21T04:47:01Z
2023-05-21T02:47:52Z,42.805,6.029,13.3024,4.60076,2470.6,2023-5-21T04:50:04Z
2023-05-21T02:50:55Z,42.805,6.029,13.3020,4.60075,2470.591,2023-5-21T04:53:07Z
2023-05-21T02:53:58Z,42.805,6.029,13.3021,4.60075,2470.567,2023-5-21T04:56:10Z
2023-05-21T02:57:01Z,42.805,6.029,13.3020,4.60074,2470.577,2023-5-21T04:59:13Z
2023-05-21T03:00:04Z,42.805,6.029,13.3019,4.60077,2470.553,2023-5-21T05:02:16Z
2023-05-21T03:03:07Z,42.805,6.029,13.3020,4.60075,2470.567,2023-5-21T05:05:19Z
2023-05-21T03:06:10Z,42.805,6.029,13.3021,4.60074,2470.614,2023-5-21T05:08:22Z
2023-05-21T03:09:13Z,42.805,6.029,13.3019,4.60075,2470.591,2023-5-21T05:11:25Z
2023-05-21T03:12:16Z,42.805,6.029,13.3021,4.60077,2470.577,2023-5-21T05:14:28Z
2023-05-21T03:15:20Z,42.805,6.029,13.3022,4.60074,2470.6,2023-5-21T05:17:32Z
2023-05-21T03:18:23Z,42.805,6.029,13.3022,4.60074,2470.553,2023-5-21T05:20:35Z
2023-05-21T03:21:26Z,42.805,6.029,13.3019,4.60075,2470.6,2023-5-21T05:23:38Z
2023-05-21T03:24:29Z,42.805,6.029,13.3020,4.60074,2470.553,2023-5-21T05:26:41Z
2023-05-21T03:27:32Z,42.805,6.029,13.3018,4.60072,2470.6,2023-5-21T05:29:44Z
2023-05-21T03:30:35Z,42.805,6.029,13.3017,4.60073,2470.577,2023-5-21T05:32:47Z
2023-05-21T03:33:38Z,42.805,6.029,13.3015,4.60073,2470.577,2023-5-21T05:35:50Z
2023-05-21T03:36:41Z,42.805,6.029,13.3019,4.60074,2470.591,2023-5-21T05:38:53Z
2023-05-21T03:39:44Z,42.805,6.029,13.3021,4.60074,2470.544,2023-5-21T05:41:56Z
2023-05-21T03:42:47Z,42.805,6.029,13.3019,4.60072,2470.577,2023-5-21T05:44:59Z
2023-05-21T03:45:50Z,42.805,6.029,13.3017,4.60074,2470.553,2023-5-21T05:48:02Z
2023-05-21T03:48:53Z,42.805,6.029,13.3021,4.60072,2470.6,2023-5-21T05:51:05Z
2023-05-21T03:51:57Z,42.805,6.029,13.3021,4.60073,2470.567,2023-5-21T05:54:08Z
2023-05-21T03:55:00Z,42.805,6.029,13.3021,4.60074,2470.553,2023-5-21T05:57:12Z
2023-05-21T03:58:03Z,42.805,6.029,13.3019,4.60072,2470.591,2023-5-21T06:00:15Z
2023-05-21T04:01:06Z,42.805,6.029,13.3019,4.60072,2470.553,2023-5-21T06:03:18Z
2023-05-21T04:04:09Z,42.805,6.029,13.3015,4.60072,2470.577,2023-5-21T06:06:21Z
2023-05-21T04:07:12Z,42.805,6.029,13.3013,4.60074,2470.577,2023-5-21T06:09:24Z
2023-05-21T04:10:15Z,42.805,6.029,13.3015,4.60073,2470.6,2023-5-21T06:12:27Z
2023-05-21T04:13:18Z,42.805,6.029,13.3019,4.60072,2470.563,2023-5-21T06:15:30Z
2023-05-21T04:16:21Z,42.805,6.029,13.3017,4.60073,2470.614,2023-5-21T06:18:33Z
2023-05-21T04:19:24Z,42.805,6.029,13.3021,4.60074,2470.586,2023-5-21T06:21:36Z
2023-05-21T04:22:27Z,42.805,6.029,13.3018,4.60074,2470.6,2023-5-21T06:24:39Z
2023-05-21T04:25:30Z,42.805,6.029,13.3016,4.60074,2470.6,2023-5-21T06:27:42Z
2023-05-21T04:28:33Z,42.805,6.029,13.3021,4.60074,2470.6,2023-5-21T06:30:45Z
2023-05-21T04:31:36Z,42.805,6.029,13.3019,4.60074,2470.624,2023-5-21T06:33:48Z
2023-05-21T04:34:39Z,42.805,6.029,13.3019,4.60073,2470.553,2023-5-21T06:36:51Z
2023-05-21T04:37:42Z,42.805,6.029,13.3020,4.60074,2470.614,2023-5-21T06:39:54Z
2023-05-21T04:40:45Z,42.805,6.029,13.3019,4.60074,2470.6,2023-5-21T06:42:57Z
2023-05-21T04:43:48Z,42.805,6.029,13.3018,4.60073,2470.591,2023-5-21T06:46:00Z
2023-05-21T04:46:51Z,42.805,6.029,13.3019,4.60073,2470.614,2023-5-21T06:49:03Z
2023-05-21T04:49:55Z,42.805,6.029,13.3021,4.60075,2470.6,2023-5-21T06:52:06Z
2023-05-21T04:52:58Z,42.805,6.029,13.3015,4.60073,2470.661,2023-5-21T06:55:10Z
2023-05-21T04:56:01Z,42.805,6.029,13.3019,4.60074,2470.6,2023-5-21T06:58:13Z
2023-05-21T04:59:04Z,42.805,6.029,13.3021,4.60076,2470.6,2023-5-21T07:01:16Z
2023-05-21T05:02:07Z,42.805,6.029,13.3015,4.60074,2470.624,2023-5-21T07:04:19Z
2023-05-21T05:05:10Z,42.805,6.029,13.3021,4.60078,2470.624,2023-5-21T07:07:22Z
2023-05-21T05:08:13Z,42.805,6.029,13.3018,4.60074,2470.646,2023-5-21T07:10:25Z
2023-05-21T05:11:16Z,42.805,6.029,13.3020,4.60076,2470.6,2023-5-21T07:13:28Z
2023-05-21T05:14:19Z,42.805,6.029,13.3018,4.60074,2470.6,2023-5-21T07:16:31Z
2023-05-21T05:17:22Z,42.805,6.029,13.3015,4.60074,2470.624,2023-5-21T07:19:34Z
2023-05-21T05:20:25Z,42.805,6.029,13.3017,4.60073,2470.637,2023-5-21T07:22:37Z
2023-05-21T05:23:28Z,42.805,6.029,13.3016,4.60075,2470.646,2023-5-21T07:25:40Z
2023-05-21T05:26:31Z,42.805,6.029,13.3018,4.60074,2470.624,2023-5-21T07:28:43Z
2023-05-21T05:29:35Z,42.805,6.029,13.3018,4.60074,2470.67,2023-5-21T07:31:47Z
2023-05-21T05:32:38Z,42.805,6.029,13.3019,4.60074,2470.624,2023-5-21T07:34:50Z
2023-05-21T05:35:41Z,42.805,6.029,13.3015,4.60074,2470.646,2023-5-21T07:37:53Z
2023-05-21T05:38:44Z,42.805,6.029,13.3019,4.60073,2470.684,2023-5-21T07:40:56Z
2023-05-21T05:41:47Z,42.805,6.029,13.3020,4.60074,2470.684,2023-5-21T07:43:59Z
2023-05-21T05:44:50Z,42.805,6.029,13.3018,4.60074,2470.646,2023-5-21T07:47:02Z
2023-05-21T05:47:53Z,42.805,6.029,13.3017,4.60072,2470.661,2023-5-21T07:50:05Z
2023-05-21T05:50:56Z,42.805,6.029,13.3020,4.60074,2470.67,2023-5-21T07:53:08Z
2023-05-21T05:53:59Z,42.805,6.029,13.3015,4.60074,2470.684,2023-5-21T07:56:11Z
2023-05-21T05:57:02Z,42.805,6.029,13.3021,4.60074,2470.67,2023-5-21T07:59:14Z
2023-05-21T06:00:05Z,42.805,6.029,13.3016,4.60074,2470.646,2023-5-21T08:02:17Z
2023-05-21T06:03:08Z,42.805,6.029,13.3019,4.60074,2470.707,2023-5-21T08:05:20Z
2023-05-21T06:06:12Z,42.805,6.029,13.3016,4.60074,2470.67,2023-5-21T08:08:23Z
2023-05-21T06:09:15Z,42.805,6.029,13.3017,4.60075,2470.693,2023-5-21T08:11:27Z
2023-05-21T06:12:18Z,42.805,6.029,13.3017,4.60074,2470.646,2023-5-21T08:14:30Z
2023-05-21T06:15:21Z,42.805,6.029,13.3020,4.60074,2470.646,2023-5-21T08:17:33Z
2023-05-21T06:18:24Z,42.805,6.029,13.3020,4.60072,2470.646,2023-5-21T08:20:36Z
2023-05-21T06:21:27Z,42.805,6.029,13.3015,4.60074,2470.684,2023-5-21T08:23:39Z
2023-05-21T06:24:30Z,42.805,6.029,13.3015,4.60073,2470.67,2023-5-21T08:26:42Z
2023-05-21T06:27:33Z,42.805,6.029,13.3019,4.60073,2470.67,2023-5-21T08:29:45Z
2023-05-21T06:30:35Z,42.805,6.029,13.3019,4.60072,2470.661,2023-5-21T08:32:47Z
2023-05-21T06:33:38Z,42.805,6.029,13.3021,4.60072,2470.684,2023-5-21T08:35:50Z
2023-05-21T06:36:41Z,42.805,6.029,13.3021,4.60074,2470.646,2023-5-21T08:38:53Z
2023-05-21T06:39:44Z,42.805,6.029,13.3021,4.60072,2470.693,2023-5-21T08:41:56Z
2023-05-21T06:42:47Z,42.805,6.029,13.3015,4.60073,2470.707,2023-5-21T08:44:59Z
2023-05-21T06:45:50Z,42.805,6.029,13.3019,4.60072,2470.646,2023-5-21T08:48:02Z
2023-05-21T06:48:53Z,42.805,6.029,13.3021,4.60073,2470.693,2023-5-21T08:51:05Z
2023-05-21T06:51:56Z,42.805,6.029,13.3021,4.60074,2470.661,2023-5-21T08:54:08Z
2023-05-21T06:54:59Z,42.805,6.029,13.3021,4.60072,2470.693,2023-5-21T08:57:11Z
2023-05-21T06:58:02Z,42.805,6.029,13.3014,4.60074,2470.693,2023-5-21T09:00:14Z
2023-05-21T07:01:05Z,42.805,6.029,13.3017,4.60074,2470.67,2023-5-21T09:03:17Z
2023-05-21T07:04:09Z,42.805,6.029,13.3019,4.60070,2470.726,2023-5-21T09:06:21Z
2023-05-21T07:07:12Z,42.805,6.029,13.3019,4.60072,2470.707,2023-5-21T09:09:24Z
2023-05-21T07:10:15Z,42.805,6.029,13.3018,4.60072,2470.67,2023-5-21T09:12:27Z
2023-05-21T07:13:18Z,42.805,6.029,13.3017,4.60072,2470.693,2023-5-21T09:15:30Z
2023-05-21T07:16:21Z,42.805,6.029,13.3019,4.60074,2470.693,2023-5-21T09:18:33Z
2023-05-21T07:19:24Z,42.805,6.029,13.3016,4.60073,2470.67,2023-5-21T09:21:36Z
2023-05-21T07:22:27Z,42.805,6.029,13.3014,4.60072,2470.67,2023-5-21T09:24:39Z
2023-05-21T07:25:30Z,42.805,6.029,13.3021,4.60072,2470.693,2023-5-21T09:27:42Z
2023-05-21T07:28:33Z,42.805,6.029,13.3019,4.60070,2470.693,2023-5-21T09:30:45Z
2023-05-21T07:31:36Z,42.805,6.029,13.3019,4.60072,2470.717,2023-5-21T09:33:48Z
2023-05-21T07:34:39Z,42.805,6.029,13.3014,4.60072,2470.73,2023-5-21T09:36:51Z
2023-05-21T07:37:42Z,42.805,6.029,13.3019,4.60070,2470.693,2023-5-21T09:39:54Z
2023-05-21T07:40:45Z,42.805,6.029,13.3021,4.60072,2470.684,2023-5-21T09:42:57Z
2023-05-21T07:43:49Z,42.805,6.029,13.3014,4.60070,2470.717,2023-5-21T09:46:01Z
2023-05-21T07:46:52Z,42.805,6.029,13.3016,4.60073,2470.717,2023-5-21T09:49:04Z
2023-05-21T07:49:55Z,42.805,6.029,13.3019,4.60073,2470.717,2023-5-21T09:52:07Z
2023-05-21T07:52:58Z,42.805,6.029,13.3016,4.60072,2470.717,2023-5-21T09:55:10Z
2023-05-21T07:56:01Z,42.805,6.029,13.3021,4.60070,2470.67,2023-5-21T09:58:13Z
2023-05-21T07:59:04Z,42.805,6.029,13.3015,4.60072,2470.73,2023-5-21T10:01:16Z
2023-05-21T08:02:07Z,42.805,6.029,13.3016,4.60071,2470.67,2023-5-21T10:04:19Z
2023-05-21T08:05:10Z,42.805,6.029,13.3021,4.60072,2470.707,2023-5-21T10:07:22Z
2023-05-21T08:08:13Z,42.805,6.029,13.3022,4.60071,2470.707,2023-5-21T10:10:25Z
2023-05-21T08:11:16Z,42.805,6.029,13.3018,4.60072,2470.693,2023-5-21T10:13:28Z
2023-05-21T08:14:19Z,42.805,6.029,13.3021,4.60072,2470.693,2023-5-21T10:16:31Z
2023-05-21T08:17:22Z,42.805,6.029,13.3018,4.60071,2470.693,2023-5-21T10:19:34Z
2023-05-21T08:20:26Z,42.805,6.029,13.3015,4.60071,2470.693,2023-5-21T10:22:38Z
2023-05-21T08:23:29Z,42.805,6.029,13.3018,4.60072,2470.707,2023-5-21T10:25:41Z
2023-05-21T08:26:32Z,42.805,6.029,13.3015,4.60070,2470.684,2023-5-21T10:28:44Z
2023-05-21T08:29:35Z,42.805,6.029,13.3016,4.60071,2470.707,2023-5-21T10:31:47Z
2023-05-21T08:32:38Z,42.805,6.029,13.3020,4.60072,2470.693,2023-5-21T10:34:50Z
2023-05-21T08:35:41Z,42.805,6.029,13.3020,4.60074,2470.707,2023-5-21T10:37:53Z
2023-05-21T08:38:44Z,42.805,6.029,13.3019,4.60074,2470.684,2023-5-21T10:40:56Z
2023-05-21T08:41:47Z,42.805,6.029,13.3020,4.60073,2470.67,2023-5-21T10:43:59Z
2023-05-21T08:44:50Z,42.805,6.029,13.3016,4.60072,2470.707,2023-5-21T10:47:02Z
2023-05-21T08:47:53Z,42.805,6.029,13.3017,4.60072,2470.67,2023-5-21T10:50:05Z
2023-05-21T08:50:56Z,42.805,6.029,13.3018,4.60074,2470.67,2023-5-21T10:53:08Z
2023-05-21T08:53:59Z,42.805,6.029,13.3019,4.60072,2470.684,2023-5-21T10:56:11Z
2023-05-21T08:57:03Z,42.805,6.029,13.3023,4.60071,2470.67,2023-5-21T10:59:15Z
2023-05-21T09:00:06Z,42.805,6.029,13.3015,4.60070,2470.67,2023-5-21T11:02:18Z
2023-05-21T09:03:09Z,42.805,6.029,13.3018,4.60072,2470.684,2023-5-21T11:05:21Z
2023-05-21T09:06:12Z,42.805,6.029,13.3023,4.60076,2470.67,2023-5-21T11:08:24Z
2023-05-21T09:09:15Z,42.805,6.029,13.3018,4.60072,2470.684,2023-5-21T11:11:27Z
2023-05-21T09:12:18Z,42.805,6.029,13.3015,4.60073,2470.693,2023-5-21T11:14:30Z
2023-05-21T09:15:21Z,42.805,6.029,13.3021,4.60072,2470.661,2023-5-21T11:17:33Z
2023-05-21T09:18:24Z,42.805,6.029,13.3019,4.60072,2470.661,2023-5-21T11:20:36Z
2023-05-21T09:21:27Z,42.805,6.029,13.3021,4.60075,2470.646,2023-5-21T11:23:39Z
2023-05-21T09:24:30Z,42.805,6.029,13.3015,4.60074,2470.684,2023-5-21T11:26:42Z
2023-05-21T09:27:33Z,42.805,6.029,13.3015,4.60074,2470.661,2023-5-21T11:29:45Z
2023-05-21T09:30:36Z,42.805,6.029,13.3014,4.60071,2470.633,2023-5-21T11:32:48Z
2023-05-21T09:33:40Z,42.805,6.029,13.3022,4.60078,2470.661,2023-5-21T11:35:52Z
2023-05-21T09:36:43Z,42.805,6.029,13.3019,4.60074,2470.661,2023-5-21T11:38:55Z
2023-05-21T09:39:46Z,42.805,6.029,13.3021,4.60071,2470.646,2023-5-21T11:41:58Z
2023-05-21T09:42:49Z,42.805,6.029,13.3021,4.60074,2470.624,2023-5-21T11:45:01Z
2023-05-21T09:45:52Z,42.805,6.029,13.3016,4.60070,2470.646,2023-5-21T11:48:04Z
2023-05-21T09:48:55Z,42.805,6.029,13.3021,4.60070,2470.661,2023-5-21T11:51:07Z
2023-05-21T09:51:58Z,42.805,6.029,13.3019,4.60070,2470.646,2023-5-21T11:54:10Z
2023-05-21T09:55:01Z,42.805,6.029,13.3017,4.60069,2470.661,2023-5-21T11:57:13Z
2023-05-21T09:58:04Z,42.805,6.029,13.3017,4.60072,2470.646,2023-5-21T12:00:16Z
2023-05-21T10:01:07Z,42.805,6.029,13.3021,4.60070,2470.624,2023-5-21T12:03:19Z
2023-05-21T10:04:10Z,42.805,6.029,13.3016,4.60070,2470.646,2023-5-21T12:06:22Z
2023-05-21T10:07:13Z,42.805,6.029,13.3022,4.60071,2470.661,2023-5-21T12:09:25Z
2023-05-21T10:10:17Z,42.805,6.029,13.3019,4.60072,2470.661,2023-5-21T12:12:29Z
2023-05-21T10:13:20Z,42.805,6.029,13.3017,4.60072,2470.624,2023-5-21T12:15:32Z
2023-05-21T10:16:23Z,42.805,6.029,13.3014,4.60076,2470.637,2023-5-21T12:18:35Z
2023-05-21T10:19:26Z,42.805,6.029,13.3018,4.60070,2470.637,2023-5-21T12:21:38Z
2023-05-21T10:22:29Z,42.805,6.029,13.3016,4.60071,2470.614,2023-5-21T12:24:41Z
2023-05-21T10:25:32Z,42.805,6.029,13.3019,4.60070,2470.637,2023-5-21T12:27:44Z
2023-05-21T10:28:35Z,42.805,6.029,13.3019,4.60070,2470.637,2023-5-21T12:30:47Z
2023-05-21T10:31:38Z,42.805,6.029,13.3021,4.60069,2470.661,2023-5-21T12:33:50Z
2023-05-21T10:34:41Z,42.805,6.029,13.3017,4.60070,2470.624,2023-5-21T12:36:53Z
2023-05-21T10:37:44Z,42.805,6.029,13.3021,4.60069,2470.614,2023-5-21T12:39:56Z
2023-05-21T10:40:47Z,42.805,6.029,13.3016,4.60075,2470.651,2023-5-21T12:42:59Z
2023-05-21T10:43:50Z,42.805,6.029,13.3016,4.60070,2470.6,2023-5-21T12:46:02Z
2023-05-21T10:46:54Z,42.805,6.029,13.3017,4.60069,2470.6,2023-5-21T12:49:06Z
2023-05-21T10:49:57Z,42.805,6.029,13.3019,4.60073,2470.624,2023-5-21T12:52:09Z
2023-05-21T10:53:00Z,42.805,6.029,13.3019,4.60069,2470.6,2023-5-21T12:55:12Z
2023-05-21T10:56:03Z,42.805,6.029,13.3021,4.60069,2470.577,2023-5-21T12:58:15Z
2023-05-21T10:59:06Z,42.805,6.029,13.3019,4.60072,2470.624,2023-5-21T13:01:18Z
2023-05-21T11:02:09Z,42.805,6.029,13.3018,4.60075,2470.577,2023-5-21T13:04:21Z
2023-05-21T11:05:12Z,42.805,6.029,13.3019,4.60072,2470.624,2023-5-21T13:07:24Z
2023-05-21T11:08:15Z,42.805,6.029,13.3015,4.60070,2470.6,2023-5-21T13:10:27Z
2023-05-21T11:11:18Z,42.805,6.029,13.3013,4.60069,2470.6,2023-5-21T13:13:30Z
2023-05-21T11:14:21Z,42.805,6.029,13.3019,4.60072,2470.624,2023-5-21T13:16:33Z
2023-05-21T11:17:24Z,42.805,6.029,13.3015,4.60070,2470.614,2023-5-21T13:19:36Z
2023-05-21T11:20:28Z,42.805,6.029,13.3018,4.60069,2470.624,2023-5-21T13:22:39Z
2023-05-21T11:23:31Z,42.805,6.029,13.3015,4.60072,2470.6,2023-5-21T13:25:43Z
2023-05-21T11:26:34Z,42.805,6.029,13.3021,4.60069,2470.577,2023-5-21T13:28:46Z
2023-05-21T11:29:37Z,42.805,6.029,13.3019,4.60074,2470.614,2023-5-21T13:31:49Z
2023-05-21T11:32:40Z,42.805,6.029,13.3018,4.60069,2470.591,2023-5-21T13:34:52Z
2023-05-21T11:35:43Z,42.805,6.029,13.3018,4.60069,2470.577,2023-5-21T13:37:55Z
2023-05-21T11:38:46Z,42.805,6.029,13.3016,4.60070,2470.577,2023-5-21T13:40:58Z
2023-05-21T11:41:49Z,42.805,6.029,13.3019,4.60071,2470.567,2023-5-21T13:44:01Z
2023-05-21T11:44:52Z,42.805,6.029,13.3015,4.60072,2470.591,2023-5-21T13:47:04Z
2023-05-21T11:47:55Z,42.805,6.029,13.3012,4.60069,2470.614,2023-5-21T13:50:07Z
2023-05-21T11:50:58Z,42.805,6.029,13.3016,4.60073,2470.591,2023-5-21T13:53:10Z
2023-05-21T11:54:01Z,42.805,6.029,13.3015,4.60070,2470.577,2023-5-21T13:56:13Z
2023-05-21T11:57:04Z,42.805,6.029,13.3015,4.60070,2470.591,2023-5-21T13:59:16Z
2023-05-21T12:00:08Z,42.805,6.029,13.3015,4.60069,2470.614,2023-5-21T14:02:20Z
2023-05-21T12:03:11Z,42.805,6.029,13.3014,4.60069,2470.577,2023-5-21T14:05:23Z
2023-05-21T12:06:14Z,42.805,6.029,13.3020,4.60072,2470.591,2023-5-21T14:08:26Z
2023-05-21T12:09:17Z,42.805,6.029,13.3015,4.60074,2470.553,2023-5-21T14:11:29Z
2023-05-21T12:12:20Z,42.805,6.029,13.3016,4.60070,2470.577,2023-5-21T14:14:32Z
2023-05-21T12:15:23Z,42.805,6.029,13.3019,4.60071,2470.624,2023-5-21T14:17:35Z
2023-05-21T12:18:26Z,42.805,6.029,13.3016,4.60073,2470.553,2023-5-21T14:20:38Z
2023-05-21T12:21:29Z,42.805,6.029,13.3019,4.60070,2470.553,2023-5-21T14:23:41Z
2023-05-21T12:24:32Z,42.805,6.029,13.3013,4.60069,2470.553,2023-5-21T14:26:44Z
2023-05-21T12:27:35Z,42.805,6.029,13.3017,4.60070,2470.577,2023-5-21T14:29:47Z
2023-05-21T12:30:39Z,42.805,6.029,13.3019,4.60070,2470.553,2023-5-21T14:32:51Z
2023-05-21T12:33:42Z,42.805,6.029,13.3015,4.60070,2470.567,2023-5-21T14:35:54Z
2023-05-21T12:36:45Z,42.805,6.029,13.3015,4.60071,2470.553,2023-5-21T14:38:57Z
2023-05-21T12:39:48Z,42.805,6.029,13.3016,4.60070,2470.553,2023-5-21T14:42:00Z
2023-05-21T12:42:51Z,42.805,6.029,13.3016,4.60072,2470.567,2023-5-21T14:45:03Z
2023-05-21T12:45:54Z,42.805,6.029,13.3016,4.60073,2470.53,2023-5-21T14:48:06Z
2023-05-21T12:48:57Z,42.805,6.029,13.3016,4.60072,2470.567,2023-5-21T14:51:09Z
2023-05-21T12:52:00Z,42.805,6.029,13.3015,4.60072,2470.567,2023-5-21T14:54:12Z
2023-05-21T12:55:04Z,42.805,6.029,13.3015,4.60070,2470.544,2023-5-21T14:57:16Z
2023-05-21T12:58:07Z,42.805,6.029,13.3019,4.60069,2470.53,2023-5-21T15:00:19Z
2023-05-21T13:01:10Z,42.805,6.029,13.3015,4.60074,2470.567,2023-5-21T15:03:22Z
2023-05-21T13:04:13Z,42.805,6.029,13.3014,4.60072,2470.553,2023-5-21T15:06:25Z
2023-05-21T13:07:16Z,42.805,6.029,13.3018,4.60070,2470.53,2023-5-21T15:09:28Z
2023-05-21T13:10:19Z,42.805,6.029,13.3018,4.60071,2470.507,2023-5-21T15:12:31Z
2023-05-21T13:13:22Z,42.805,6.029,13.3015,4.60070,2470.53,2023-5-21T15:15:34Z
2023-05-21T13:16:25Z,42.805,6.029,13.3015,4.60070,2470.567,2023-5-21T15:18:37Z
2023-05-21T13:19:28Z,42.805,6.029,13.3015,4.60070,2470.53,2023-5-21T15:21:40Z
2023-05-21T13:22:31Z,42.805,6.029,13.3019,4.60070,2470.53,2023-5-21T15:24:43Z
2023-05-21T13:25:34Z,42.805,6.029,13.3015,4.60073,2470.553,2023-5-21T15:27:46Z
2023-05-21T13:28:37Z,42.805,6.029,13.3015,4.60072,2470.553,2023-5-21T15:30:49Z
2023-05-21T13:31:40Z,42.805,6.029,13.3015,4.60071,2470.53,2023-5-21T15:33:52Z
2023-05-21T13:34:44Z,42.805,6.029,13.3019,4.60071,2470.53,2023-5-21T15:36:56Z
2023-05-21T13:37:47Z,42.805,6.029,13.3019,4.60069,2470.53,2023-5-21T15:39:59Z
2023-05-21T13:40:50Z,42.805,6.029,13.3021,4.60070,2470.53,2023-5-21T15:43:02Z
2023-05-21T13:43:53Z,42.805,6.029,13.3019,4.60070,2470.553,2023-5-21T15:46:05Z
2023-05-21T13:46:56Z,42.805,6.029,13.3020,4.60072,2470.544,2023-5-21T15:49:08Z
2023-05-21T13:49:59Z,42.805,6.029,13.3017,4.60072,2470.507,2023-5-21T15:52:11Z
2023-05-21T13:53:02Z,42.805,6.029,13.3016,4.60069,2470.53,2023-5-21T15:55:14Z
2023-05-21T13:56:05Z,42.805,6.029,13.3020,4.60070,2470.53,2023-5-21T15:58:17Z
2023-05-21T13:59:08Z,42.805,6.029,13.3014,4.60069,2470.553,2023-5-21T16:01:20Z
2023-05-21T14:02:11Z,42.805,6.029,13.3019,4.60073,2470.497,2023-5-21T16:04:23Z
2023-05-21T14:05:14Z,42.805,6.029,13.3023,4.60072,2470.507,2023-5-21T16:07:26Z
2023-05-21T14:08:17Z,42.805,6.029,13.3017,4.60076,2470.553,2023-5-21T16:10:29Z
2023-05-21T14:11:21Z,42.805,6.029,13.3015,4.60072,2470.567,2023-5-21T16:13:33Z
2023-05-21T14:14:24Z,42.805,6.029,13.3019,4.60070,2470.544,2023-5-21T16:16:36Z
2023-05-21T14:17:27Z,42.805,6.029,13.3021,4.60077,2470.507,2023-5-21T16:19:39Z
2023-05-21T14:20:30Z,42.805,6.029,13.3013,4.60071,2470.507,2023-5-21T16:22:42Z
2023-05-21T14:23:33Z,42.805,6.029,13.3015,4.60072,2470.53,2023-5-21T16:25:45Z
2023-05-21T14:26:36Z,42.805,6.029,13.3018,4.60072,2470.544,2023-5-21T16:28:48Z
2023-05-21T14:29:39Z,42.805,6.029,13.3021,4.60069,2470.53,2023-5-21T16:31:51Z
2023-05-21T14:32:43Z,42.805,6.029,13.3014,4.60072,2470.567,2023-5-21T16:34:55Z
2023-05-21T14:35:46Z,42.805,6.029,13.3015,4.60070,2470.53,2023-5-21T16:37:58Z
2023-05-21T14:38:49Z,42.805,6.029,13.3020,4.60074,2470.507,2023-5-21T16:41:01Z
2023-05-21T14:41:52Z,42.805,6.029,13.3024,4.60071,2470.544,2023-5-21T16:44:04Z
2023-05-21T14:44:55Z,42.805,6.029,13.3017,4.60072,2470.507,2023-5-21T16:47:07Z
2023-05-21T14:47:58Z,42.805,6.029,13.3018,4.60073,2470.52,2023-5-21T16:50:10Z
2023-05-21T14:51:01Z,42.805,6.029,13.3015,4.60075,2470.544,2023-5-21T16:53:13Z
2023-05-21T14:54:04Z,42.805,6.029,13.3019,4.60075,2470.553,2023-5-21T16:56:16Z
2023-05-21T14:57:08Z,42.805,6.029,13.3019,4.60072,2470.53,2023-5-21T16:59:20Z
2023-05-21T15:00:11Z,42.805,6.029,13.3019,4.60076,2470.52,2023-5-21T17:02:23Z
2023-05-21T15:03:14Z,42.805,6.029,13.3011,4.60075,2470.53,2023-5-21T17:05:26Z
2023-05-21T15:06:17Z,42.805,6.029,13.3015,4.60070,2470.53,2023-5-21T17:08:29Z
2023-05-21T15:09:20Z,42.805,6.029,13.3014,4.60069,2470.507,2023-5-21T17:11:32Z
2023-05-21T15:12:23Z,42.805,6.029,13.3014,4.60072,2470.52,2023-5-21T17:14:35Z